Temp
19 18 18 20 22 23 23 23 24 25 26 25 25 25 26 26 26 26 26 26 25 25 25 23 20 19 17 16 14 12 10 10 11 12 12 12 12 11 11 11 11 11 11 11
19 18 21 23 23 24 24 23 23 24 25 25 25 25 26 26 26 26 25 25 25 24 25 22 20 18 16 15 13 11 10 10 10 11 11 10 10 9 10 11 11 11 11 10
19 21 22 22 22 22 23 22 21 22 24 24 24 23 25 26 26 26 26 25 24 24 24 20 18 16 15 14 12 11 9 10 10 10 10 9 8 8 8 9 10 10 10 10
20 22 22 22 22 22 21 23 23 22 22 21 24 21 24 25 26 27 26 26 25 24 24 19 17 15 14 13 12 10 9 9 9 10 9 9 9 9 8 8 9 10 9 9
18 20 21 20 21 22 21 23 22 22 20 20 21 21 23 25 25 26 27 26 25 24 24 19 16 14 13 12 11 10 10 9 9 9 8 8 8 8 7 8 8 8 8 8
19 20 21 21 21 21 22 21 21 21 19 17 20 21 22 23 24 24 27 25 25 23 23 20 16 14 12 12 11 10 10 9 9 8 8 8 8 8 7 8 7 7 8 8
17 18 20 21 20 20 20 19 17 17 17 17 21 21 22 22 22 22 23 22 21 21 20 18 15 13 12 12 11 9 10 9 8 7 7 8 8 7 7 6 4 5 6 7
18 18 20 21 20 19 19 19 17 16 17 19 21 20 20 19 19 18 18 19 18 17 17 16 15 13 13 11 10 9 9 8 8 7 6 7 6 5 5 4 4 5 6 6
18 19 20 20 21 20 18 18 20 17 18 15 18 20 17 18 18 17 16 16 15 15 15 16 15 14 12 11 9 8 7 7 7 6 5 5 5 4 4 5 5 6 5 5
18 16 19 19 19 19 18 20 16 14 12 15 18 19 16 17 17 17 16 15 14 13 13 13 13 13 12 10 8 7 7 7 5 4 4 4 4 4 5 5 5 5 5 5
17 16 16 18 17 17 18 17 17 17 12 12 14 16 16 15 15 15 15 15 14 13 13 12 12 12 10 9 8 6 6 6 4 3 3 2 2 3 4 5 4 5 4 3
13 14 14 16 18 17 17 16 17 14 14 14 13 13 15 15 15 13 13 13 13 13 13 12 12 11 10 9 7 6 6 4 3 2 1 2 3 3 4 3 3 2 1 1
13 12 11 13 15 16 12 11 12 11 14 13 12 13 14 14 13 13 13 13 13 13 13 12 11 11 10 8 7 5 4 4 3 3 4 3 3 3 3 2 1 -0 0 1
11 11 11 11 9 7 7 7 9 7 7 9 11 12 12 11 11 11 11 11 12 12 12 12 11 10 10 8 7 5 4 4 4 4 4 4 3 2 2 0 0 -2 -1 -1
11 11 12 12 12 8 8 8 8 8 8 7 10 10 11 12 12 12 12 13 12 12 12 12 10 9 8 7 6 6 5 4 4 4 4 2 1 1 0 0 -2 -3 -2 -3
11 10 11 11 12 12 9 11 11 11 11 10 10 10 12 13 13 13 13 13 13 13 12 12 11 11 9 7 6 5 6 6 5 2 1 1 0 -0 1 -1 -1 -3 -4 -4
9 9 9 9 11 11 10 11 12 12 13 12 10 12 14 14 14 14 13 13 13 13 12 11 10 10 9 8 8 6 5 4 2 -0 -1 -1 -1 -1 -1 -1 -3 -5 -5 -5
9 9 9 8 10 7 11 14 13 13 14 15 14 15 15 15 15 14 14 13 11 10 9 8 8 8 7 7 7 6 5 3 1 1 0 0 -1 -1 -2 -2 -3 -5 -5 -5
11 10 9 8 8 10 12 13 13 13 12 14 14 14 15 14 14 14 11 9 9 9 8 8 7 7 7 6 6 5 4 4 2 1 1 1 -0 -1 -2 -3 -3 -4 -5 -5
10 10 9 7 7 7 10 13 14 15 7 11 13 13 13 13 10 9 8 7 7 7 7 7 7 7 6 5 5 5 4 3 3 2 1 0 -1 -2 -3 -3 -4 -6 -6 -5
8 8 7 7 7 9 13 14 14 10 11 14 14 13 13 12 10 8 7 7 7 7 7 7 7 6 6 3 3 3 2 2 1 1 0 -1 -2 -3 -3 -4 -5 -7 -6 -6
8 6 7 8 7 7 12 13 9 9 12 12 12 12 12 9 8 8 7 8 7 7 5 5 3 5 5 3 1 1 1 1 -0 -0 -1 -1 -3 -4 -4 -5 -6 -8 -8 -8
6 8 6 8 9 11 12 12 13 12 12 12 12 11 11 9 9 8 8 8 7 6 4 4 3 2 3 1 0 0 0 0 -0 -1 -2 -3 -4 -5 -5 -6 -7 -8 -9 -9
8 10 8 7 7 6 8 10 12 12 12 12 12 11 10 9 8 8 7 7 7 6 4 4 3 2 2 0 -1 -1 -0 -0 -1 -2 -3 -5 -5 -6 -7 -7 -8 -9 -9 -10
2 1 3 5 7 5 7 7 7 11 11 11 11 11 10 9 8 8 7 6 5 4 4 3 2 1 0 0 -1 -1 -1 -1 -2 -3 -5 -5 -6 -6 -7 -8 -8 -9 -9 -9
4 3 2 4 6 3 8 11 11 11 11 11 10 10 9 9 8 7 6 5 4 4 4 3 2 1 -1 -1 -1 -2 -1 -3 -3 -4 -6 -6 -6 -7 -8 -8 -9 -9 -9 -9
Height
1470 1473 1467 1457 1452 1451 1449 1447 1445 1435 1429 1432 1432 1433 1434 1434 1433 1436 1438 1439 1442 1444 1448 1452 1457 1466 1474 1478 1481 1485 1488 1491 1493 1495 1497 1500 1503 1505 1507 1510 1512 1514 1515 1516
1466 1462 1455 1449 1443 1440 1438 1444 1446 1438 1434 1435 1432 1429 1426 1428 1430 1429 1431 1435 1439 1441 1446 1447 1452 1459 1469 1475 1479 1483 1485 1488 1491 1494 1496 1499 1500 1503 1505 1507 1509 1512 1513 1514
1454 1446 1446 1445 1443 1443 1439 1444 1447 1445 1435 1429 1431 1425 1423 1420 1421 1421 1422 1424 1429 1435 1440 1442 1447 1456 1466 1474 1479 1483 1485 1488 1490 1493 1494 1495 1498 1500 1503 1505 1507 1509 1511 1512
1443 1444 1441 1438 1436 1439 1445 1439 1435 1437 1439 1442 1428 1429 1415 1410 1407 1404 1409 1414 1418 1425 1432 1437 1441 1452 1461 1472 1478 1481 1483 1487 1491 1492 1491 1492 1494 1496 1500 1501 1504 1507 1509 1511
1441 1443 1438 1439 1436 1433 1435 1437 1438 1436 1441 1441 1431 1440 1392 1404 1404 1397 1394 1401 1409 1416 1426 1430 1438 1447 1457 1468 1476 1482 1483 1485 1489 1491 1491 1492 1494 1497 1497 1498 1502 1504 1506 1508
1439 1440 1434 1431 1432 1434 1433 1437 1438 1438 1447 1450 1431 1436 1386 1409 1401 1396 1389 1396 1408 1415 1423 1427 1433 1443 1453 1462 1470 1478 1483 1485 1484 1487 1490 1492 1493 1493 1493 1496 1500 1501 1503 1505
1439 1436 1432 1431 1434 1434 1436 1442 1455 1455 1456 1440 1417 1420 1405 1402 1406 1407 1408 1412 1416 1419 1424 1428 1435 1444 1452 1459 1463 1470 1478 1482 1480 1484 1488 1490 1488 1488 1490 1494 1497 1499 1500 1503
1427 1428 1419 1418 1422 1431 1432 1440 1450 1457 1445 1426 1407 1416 1416 1413 1418 1422 1424 1425 1426 1428 1430 1436 1439 1447 1453 1459 1463 1468 1474 1479 1479 1483 1486 1487 1486 1487 1489 1493 1494 1496 1499 1501
1425 1418 1415 1417 1411 1420 1432 1437 1431 1438 1431 1446 1425 1410 1420 1420 1423 1429 1433 1436 1437 1440 1440 1439 1444 1450 1455 1457 1461 1466 1471 1476 1477 1480 1482 1482 1484 1486 1488 1489 1492 1493 1496 1498
1425 1431 1418 1419 1424 1426 1428 1427 1441 1446 1464 1447 1420 1415 1427 1426 1425 1431 1438 1443 1445 1446 1446 1446 1448 1448 1452 1456 1459 1464 1469 1473 1474 1476 1479 1481 1483 1483 1484 1487 1489 1492 1494 1496
1429 1432 1426 1420 1427 1433 1429 1435 1434 1433 1453 1454 1445 1429 1430 1434 1435 1440 1442 1444 1446 1447 1448 1449 1451 1454 1454 1454 1457 1462 1468 1469 1472 1474 1475 1478 1479 1480 1482 1485 1486 1491 1491 1493
1439 1436 1436 1431 1423 1427 1431 1431 1428 1441 1441 1436 1446 1442 1433 1436 1439 1444 1448 1449 1451 1450 1450 1452 1451 1453 1455 1456 1458 1462 1465 1467 1467 1470 1471 1475 1479 1481 1481 1482 1485 1486 1489 1492
1437 1441 1447 1439 1434 1428 1444 1448 1445 1445 1437 1439 1447 1440 1435 1442 1443 1445 1449 1449 1449 1450 1450 1449 1450 1451 1453 1455 1457 1459 1462 1462 1465 1468 1470 1474 1475 1475 1479 1481 1481 1484 1487 1488
1443 1441 1443 1445 1451 1459 1462 1462 1457 1461 1464 1454 1442 1438 1442 1446 1447 1446 1448 1448 1445 1444 1445 1445 1446 1449 1450 1452 1453 1454 1456 1460 1462 1464 1465 1467 1469 1472 1474 1476 1477 1484 1484 1485
1439 1438 1435 1434 1436 1449 1450 1452 1453 1457 1455 1461 1443 1444 1434 1441 1438 1436 1439 1439 1440 1441 1443 1443 1442 1445 1448 1450 1449 1449 1452 1455 1457 1459 1462 1464 1467 1469 1469 1470 1474 1479 1479 1485
1435 1436 1433 1432 1429 1431 1442 1439 1433 1438 1438 1441 1440 1438 1428 1432 1432 1430 1431 1432 1432 1434 1436 1438 1441 1441 1439 1442 1445 1445 1447 1449 1452 1453 1456 1459 1463 1465 1463 1467 1469 1471 1479 1481
1434 1434 1433 1430 1427 1426 1432 1422 1423 1422 1422 1424 1428 1421 1421 1422 1422 1421 1425 1427 1428 1427 1431 1434 1436 1439 1441 1441 1439 1438 1442 1443 1445 1449 1450 1456 1460 1462 1462 1464 1467 1470 1474 1476
1425 1428 1430 1428 1426 1433 1411 1410 1412 1414 1409 1409 1409 1409 1409 1410 1413 1416 1418 1421 1424 1428 1431 1433 1434 1436 1435 1435 1436 1437 1440 1439 1441 1443 1448 1452 1454 1458 1460 1461 1463 1467 1469 1475
1417 1419 1421 1424 1419 1412 1406 1398 1402 1403 1407 1404 1405 1405 1404 1406 1409 1412 1416 1420 1424 1427 1430 1431 1433 1433 1433 1433 1433 1434 1436 1438 1438 1440 1443 1446 1448 1453 1456 1458 1461 1464 1467 1471
1409 1409 1415 1423 1416 1411 1395 1393 1395 1395 1419 1403 1402 1402 1404 1406 1411 1414 1416 1419 1423 1426 1428 1429 1430 1431 1430 1431 1431 1431 1431 1432 1433 1436 1439 1443 1446 1449 1452 1455 1458 1462 1466 1468
1399 1403 1406 1409 1406 1396 1385 1384 1387 1401 1395 1390 1393 1396 1399 1403 1407 1410 1413 1417 1421 1423 1424 1424 1425 1426 1426 1427 1426 1427 1428 1429 1431 1433 1437 1440 1442 1445 1449 1453 1456 1458 1462 1464
1393 1401 1394 1394 1400 1399 1376 1386 1396 1393 1389 1391 1393 1397 1400 1403 1406 1408 1411 1414 1417 1419 1420 1420 1420 1421 1421 1422 1423 1424 1425 1426 1429 1431 1432 1435 1438 1442 1446 1449 1452 1455 1459 1461
1394 1387 1392 1383 1376 1375 1375 1378 1377 1378 1380 1385 1389 1394 1398 1400 1403 1406 1410 1412 1413 1415 1416 1418 1419 1415 1417 1417 1418 1421 1423 1424 1425 1428 1429 1431 1434 1439 1443 1446 1449 1453 1456 1459
1378 1379 1379 1385 1380 1377 1377 1375 1372 1370 1377 1382 1386 1391 1395 1398 1401 1403 1406 1407 1409 1410 1412 1414 1414 1411 1412 1413 1415 1416 1420 1421 1422 1424 1426 1429 1431 1437 1441 1444 1448 1451 1454 1457
1398 1397 1388 1378 1374 1380 1377 1372 1378 1375 1380 1380 1383 1387 1390 1394 1399 1400 1403 1404 1405 1406 1408 1409 1409 1408 1408 1409 1410 1412 1415 1417 1418 1420 1423 1426 1430 1435 1439 1444 1447 1450 1452 1455
1392 1393 1393 1378 1376 1382 1370 1367 1370 1373 1374 1376 1380 1383 1387 1391 1394 1396 1398 1400 1403 1404 1405 1404 1405 1406 1406 1405 1406 1408 1409 1414 1415 1417 1420 1424 1428 1433 1437 1442 1444 1448 1450 1453
Wind_Speed
17 11 17 22 20 21 20 20 22 18 18 17 14 15 15 19 21 18 17 17 22 25 31 33 31 30 27 26 27 27 25 24 23 20 19 17 15 14 13 11 12 10 8 5
17 20 21 21 21 21 19 16 18 18 18 18 19 21 20 15 19 21 25 25 23 24 21 32 34 35 31 25 26 25 25 24 21 17 14 11 13 11 11 12 11 9 8 5
22 17 25 22 20 20 20 17 18 21 20 22 20 24 19 20 26 30 29 29 30 27 25 33 38 33 31 25 24 23 23 21 19 14 20 21 18 16 12 11 11 10 8 6
23 22 24 23 18 14 20 17 20 21 17 14 15 19 17 17 17 20 32 31 30 28 27 34 37 32 31 24 23 22 20 18 19 23 24 21 18 15 11 13 12 12 10 8
24 19 19 25 26 21 23 20 18 20 14 18 21 11 21 14 19 20 17 29 26 27 20 35 37 33 26 23 22 22 20 18 21 23 16 17 11 15 21 17 13 12 10 7
27 29 22 15 14 15 17 19 18 14 11 16 17 14 29 11 4 13 5 19 14 20 18 32 36 32 27 24 22 24 20 19 21 21 16 15 17 22 21 16 13 11 10 8
25 29 27 25 20 14 14 10 9 9 10 13 7 14 17 12 12 13 12 15 16 12 10 30 34 29 25 25 27 23 22 21 20 19 19 20 19 20 18 16 13 13 10 7
12 11 26 20 27 19 16 15 9 10 11 15 13 9 1 18 19 22 19 13 13 12 9 23 26 23 22 24 24 22 23 20 20 19 20 22 20 18 17 17 18 14 11 8
9 12 3 8 6 18 17 17 17 20 16 9 9 5 16 9 11 12 11 14 17 11 6 6 14 16 18 20 20 22 21 20 22 21 21 23 23 22 23 22 18 13 10 7
7 11 11 5 4 8 12 12 5 1 4 9 13 14 3 5 8 9 9 12 9 7 6 2 3 12 16 18 18 19 18 21 19 21 22 20 23 24 21 18 15 12 10 9
6 8 11 6 6 8 10 12 13 9 6 3 5 0 8 10 11 8 8 11 9 7 5 2 3 8 13 15 18 18 19 21 20 20 21 22 24 22 17 13 10 14 12 9
3 4 10 15 16 8 14 12 10 9 17 7 6 6 9 8 8 11 12 9 5 6 2 2 4 8 11 15 18 21 23 19 23 24 22 22 18 14 14 15 17 12 10 11
3 1 5 9 13 2 5 8 8 11 6 12 11 5 10 8 7 4 5 9 9 10 5 3 4 8 13 18 19 20 21 25 27 21 18 17 16 17 19 18 14 12 14 13
2 5 7 11 1 3 3 4 5 5 3 6 9 10 3 6 7 10 17 19 17 17 14 8 9 11 15 18 20 23 27 25 24 22 21 24 24 23 21 17 15 16 13 11
6 13 14 15 16 12 9 10 14 12 12 7 16 12 19 12 10 19 22 17 17 16 15 15 14 15 17 18 23 26 27 25 24 24 26 27 22 23 21 19 18 17 14 11
13 10 13 17 17 17 16 19 20 19 21 19 19 20 19 19 24 22 19 17 15 13 13 11 15 13 20 17 24 22 21 19 22 26 28 26 28 28 21 21 23 15 17 17
12 11 14 16 15 17 15 24 20 21 21 20 18 20 18 16 13 16 14 17 16 6 5 6 3 5 3 11 20 25 27 24 22 28 29 28 28 25 22 23 19 22 20 19
14 17 12 10 12 15 18 17 21 24 21 16 18 16 17 17 15 14 10 2 4 5 3 0 5 8 10 11 6 24 21 23 27 31 27 24 28 26 25 22 22 22 19 20
17 16 11 11 12 16 15 18 17 11 13 15 15 15 16 17 15 10 7 5 5 2 3 3 3 5 7 7 15 19 22 26 29 31 26 26 26 27 26 25 24 22 20 17
21 18 15 9 10 17 18 22 26 12 5 22 22 13 14 15 6 3 14 12 8 5 3 5 7 8 8 10 12 17 21 26 29 30 29 27 25 28 27 26 25 22 19 17
18 19 17 15 15 13 17 15 7 9 9 7 11 8 6 3 5 18 14 9 4 6 9 11 11 11 12 11 14 16 19 21 22 23 27 27 25 27 26 24 23 20 19 16
17 8 16 18 14 20 24 20 12 16 10 7 11 7 6 9 14 11 6 4 7 10 9 11 13 13 14 16 18 16 17 19 21 23 23 23 25 27 27 26 23 21 19 16
18 17 6 10 12 10 11 20 23 22 21 14 14 10 10 15 12 8 9 9 9 8 7 8 9 17 14 14 17 16 18 19 20 22 22 22 24 27 26 24 22 20 17 16
19 17 15 9 13 11 21 21 16 9 7 11 13 13 10 12 14 13 15 13 11 9 8 8 10 16 15 12 13 16 17 18 19 20 21 23 25 26 24 22 20 19 18 15
7 9 4 8 9 14 18 11 27 12 14 13 13 9 11 13 14 15 16 15 13 10 10 10 11 13 14 13 14 14 17 19 18 18 21 24 25 26 24 20 19 16 13 14
13 10 8 5 15 12 19 13 13 13 12 13 16 13 13 13 12 13 13 16 12 11 12 12 12 12 14 17 16 14 16 17 19 20 22 25 28 26 23 21 20 19 17 17
Wind_Direction
205 216 228 231 226 237 258 272 285 289 298 304 273 246 256 279 264 233 255 232 225 234 211 196 186 184 184 197 196 199 195 196 194 188 187 190 192 194 199 187 184 183 174 162
239 228 241 245 246 252 253 268 271 276 273 275 276 274 272 243 261 254 220 233 240 242 231 186 183 182 183 191 193 196 203 199 189 187 187 189 195 190 198 184 184 179 176 175
231 239 225 239 256 260 253 247 264 275 285 286 293 279 272 255 249 249 244 220 216 224 231 175 178 179 183 193 194 198 206 204 178 171 177 181 187 195 193 180 187 185 188 195
247 253 265 265 251 255 265 263 260 258 268 267 262 283 269 280 285 238 229 229 213 217 216 176 172 175 184 189 195 198 203 204 171 194 194 203 199 186 180 193 198 195 198 207
249 247 241 250 254 259 260 272 266 281 288 296 263 265 271 248 245 245 241 209 211 198 227 170 169 176 180 185 200 199 204 195 195 202 204 199 162 179 184 205 200 192 197 203
258 258 269 280 259 261 277 269 270 258 264 258 259 246 276 255 328 22 342 159 186 181 207 173 172 169 173 180 193 196 200 195 204 208 194 189 200 197 198 207 197 195 200 208
246 250 255 255 256 249 265 247 243 238 221 246 245 242 244 81 76 50 46 68 64 72 80 148 151 160 171 182 192 194 196 198 208 203 194 186 208 204 209 195 181 202 212 213
264 248 223 226 234 234 234 229 237 233 245 261 311 268 56 65 53 47 32 37 72 60 70 141 148 160 175 187 191 187 196 198 208 201 198 193 198 185 183 174 198 209 221 222
281 245 85 350 235 213 235 251 242 264 279 299 266 309 98 65 96 68 50 42 45 62 68 103 140 169 178 187 189 193 196 203 207 197 196 193 185 192 197 197 204 213 216 215
278 284 282 110 19 282 256 270 279 80 227 240 254 257 33 62 75 91 81 63 53 42 32 57 145 172 180 188 188 192 190 201 187 189 197 200 198 200 200 199 201 208 219 222
288 268 270 268 203 255 235 240 251 254 180 257 290 278 89 67 68 81 71 60 45 43 22 6 220 212 189 199 199 192 187 199 199 192 195 197 200 201 194 196 217 220 215 209
91 316 280 270 259 334 311 298 270 244 241 244 224 276 103 92 84 50 27 14 355 343 32 336 216 203 194 196 193 183 187 192 193 200 201 206 205 196 199 210 211 207 205 214
32 289 282 273 280 263 343 350 358 331 297 246 254 244 80 46 0 22 343 310 285 292 261 212 240 210 200 192 195 195 198 205 214 221 214 212 211 226 214 210 201 211 210 212
227 212 219 248 222 131 186 306 5 66 326 323 269 298 248 218 264 293 286 279 271 248 247 225 206 205 198 201 200 207 211 221 217 210 223 223 227 217 213 211 215 205 206 205
227 237 237 246 256 198 209 222 236 239 235 220 264 270 266 275 270 262 261 260 260 258 260 259 221 207 209 204 213 218 226 226 220 225 231 230 218 213 214 211 200 198 208 202
218 237 249 255 252 220 223 234 235 236 233 226 242 256 262 272 264 261 267 264 258 257 258 260 266 252 220 214 210 229 226 228 231 228 229 225 213 210 216 215 217 198 187 190
232 244 234 241 245 259 243 244 249 241 239 237 241 248 259 263 262 267 250 246 248 274 228 225 43 299 297 223 237 229 229 230 222 212 224 220 216 218 215 213 201 189 197 206
246 226 234 247 245 244 244 242 234 240 246 255 244 261 252 260 268 270 246 297 73 69 56 128 257 250 253 255 246 230 223 224 216 223 232 232 226 224 220 212 205 197 199 211
230 244 238 234 235 249 273 234 238 231 246 255 260 264 274 274 280 268 129 105 132 150 164 187 240 257 256 253 215 214 216 226 227 231 233 236 231 224 215 213 209 203 200 211
235 232 241 216 234 242 242 242 250 257 210 252 250 253 262 263 260 122 130 134 147 167 224 275 278 269 258 240 236 234 233 232 235 235 237 238 236 222 217 213 208 202 204 212
214 229 234 239 245 248 251 242 209 210 241 261 255 250 259 259 89 129 149 151 198 265 281 281 275 266 254 235 245 235 240 236 231 234 233 237 231 221 218 212 207 196 199 200
260 236 227 227 237 243 238 253 186 214 258 257 199 214 239 147 139 151 169 222 260 272 264 269 267 269 252 238 236 245 237 239 235 232 229 230 227 216 211 207 202 194 199 203
249 246 237 235 236 254 254 238 253 217 203 212 214 202 218 196 192 216 239 257 258 254 233 236 240 268 282 254 243 242 244 241 237 235 232 224 217 210 206 204 198 189 191 193
248 244 243 245 246 283 292 283 248 184 212 222 205 215 229 222 200 225 245 248 262 255 243 221 225 257 276 257 245 240 243 243 238 235 226 217 208 201 198 196 193 191 190 191
310 335 306 244 264 298 249 246 250 211 214 228 233 220 218 210 221 238 252 260 258 240 224 217 225 247 262 259 248 246 241 238 234 226 218 210 200 197 195 196 189 194 192 197
256 257 269 278 310 323 275 192 199 223 242 248 243 241 244 226 228 244 250 260 245 234 226 222 221 223 243 256 252 240 234 232 225 213 208 203 197 194 192 184 179 186 201 197